STARLINK-4514 (53551 NORAD) Tracking and Keplerian Element Data

This shows tracking and keplerian element data for the satellite.

Feedback or suggestion? Click here.




ElementValue
Catalog53551
NameSTARLINK-4514
Epoch Orbit1444
Epoch Day325.03918208
Epoch Year2022
RAAN72.0033
Inclination53.2158
Eccentricity0.0001622
Argument of Perigee66.0888
Mean Anonmoly294.0274
Mean Motion15.08811165
Decay Rate-2.642E-05
L11 53551U 22101AA 22325.03918208 -.00002642 00000+0 -14806-3 0 9997
L22 53551 53.2158 72.0033 0001622 66.0888 294.0274 15.08811165 14444



Live tracking and technical data element details for STARLINK-4514 (NORAD 53551). STARLINK-4514 can be tracked NOW for your location showing map with azimuth and elevation plus other details from your city location.







IsCatalogInMostPopularTable: catalog: 53551, numindb: 2
Update: records affected: 1



GetName: 53551 STARLINK-4514

Hit Count: updated at: Tue, 29 Nov 2022 02:15:52 GMT